Weather in Ochkyne

Ukraine / Sumi District     52°13′41″N   33°22′37″E
temp.,
°C
wind,
m/s
gust,
m/s
humid.,
%
clouds,
%
prec.,
mm/h
press.,
hPa
HPBL,
m
21 october, thu
thu2100:00+10sw91870100 0.0 1013673
03:00+10sw71767100 0.0 1011519
06:00+10ssw71770100 0.1 1009471
09:00+11sw7186691 0.1 1009612
12:00+15sw8165794 0.0 1008783
15:00+15ssw8145893 0.0 1006771
18:00+13ssw81763100 0.0 1005651
21:00+13ssw81756100 0.0 1003666
22 october, fri
fri2200:00+12ssw81756100 0.0 1002519
03:00+12sw71659100 0.0 1002606
06:00+13wsw7136785 0.0 1002847
09:00+12wsw7137397 0.0 10051099
12:00+13wsw815565 0.0 10071696
15:00+14wsw8145324 0.1 10082104
18:00+10wsw511565 0.0 1009297
21:00+9wsw512531 0.0 1010416
23 october, sat
sat2300:00+7sw5126220 0.0 1010332
03:00+7sw614590 0.0 1009459
06:00+6sw6146529 0.0 1010569
09:00+7wsw713636 0.0 10101110
12:00+9wsw8115181 0.0 10111757
15:00+8w71162100 0.4 10121513
18:00+6w612655 0.1 1014649
21:00+5w6127821 0.1 1016625
24 october, sun
sun2400:00+6wsw61266100 0.0 1016674
03:00+6w71168100 0.0 10161141
06:00+5w6117996 0.0 1016958
09:00+5wnw61072100 0.1 10181301
12:00+5wnw6968100 0.3 10191123
15:00+3nw71184100 0.7 1020976
18:00+3nw7127782 0.2 1022916
21:00+2nnw7138229 0.3 1024822
25 october, mon
mon2500:000nnw612836 0.0 1027585
03:00−1nnw5118912 0.0 1029375
06:00−2nnw39935 0.0 1031277
09:00−1nnw47845 0.0 1033307
12:00+3n34575 0.0 1034794
15:00+5nnw33485 0.0 1034984
18:00+1n11630 0.0 103510
21:000se11675 0.0 103510